TimePST,TemperatureF,Dew PointF,Humidity,Sea Level PressureIn,VisibilityMPH,Wind Direction,Wind SpeedMPH,Gust SpeedMPH,PrecipitationIn,Events,Conditions,WindDirDegrees,DateUTC
12:53 AM,46.0,26.1,46,30.12,10.0,WNW,3.5,-,N/A,,Clear,300,2014-01-18 08:53:00
1:53 AM,44.1,26.1,49,30.12,10.0,Calm,Calm,-,N/A,,Clear,0,2014-01-18 09:53:00
2:53 AM,45.0,27.0,49,30.11,10.0,WSW,4.6,-,N/A,,Clear,250,2014-01-18 10:53:00
3:53 AM,43.0,24.1,47,30.10,10.0,NW,3.5,-,N/A,,Clear,310,2014-01-18 11:53:00
4:53 AM,41.0,24.1,51,30.10,10.0,WNW,3.5,-,N/A,,Clear,290,2014-01-18 12:53:00
5:53 AM,39.9,25.0,55,30.12,10.0,Calm,Calm,-,N/A,,Clear,0,2014-01-18 13:53:00
6:53 AM,42.1,24.1,49,30.12,10.0,Calm,Calm,-,N/A,,Clear,0,2014-01-18 14:53:00
7:53 AM,43.0,25.0,49,30.13,10.0,WSW,5.8,-,N/A,,Clear,240,2014-01-18 15:53:00
8:53 AM,51.1,25.0,36,30.15,10.0,Calm,Calm,-,N/A,,Clear,0,2014-01-18 16:53:00
9:53 AM,55.9,24.1,29,30.15,10.0,Calm,Calm,-,N/A,,Clear,0,2014-01-18 17:53:00
10:53 AM,64.9,25.0,22,30.14,10.0,Calm,Calm,-,N/A,,Clear,0,2014-01-18 18:53:00
11:53 AM,70.0,25.0,18,30.11,10.0,East,3.5,-,N/A,,Clear,100,2014-01-18 19:53:00
12:53 PM,75.9,23.0,14,30.08,10.0,Variable,3.5,-,N/A,,Clear,0,2014-01-18 20:53:00
1:53 PM,79.0,17.1,10,30.06,10.0,Calm,Calm,-,N/A,,Clear,0,2014-01-18 21:53:00
2:53 PM,80.1,19.0,10,30.04,10.0,SSE,3.5,-,N/A,,Clear,150,2014-01-18 22:53:00
3:53 PM,75.9,27.0,16,30.04,10.0,SW,3.5,-,N/A,,Clear,230,2014-01-18 23:53:00
4:53 PM,70.0,21.9,16,30.04,10.0,Calm,Calm,-,N/A,,Clear,0,2014-01-19 00:53:00
5:53 PM,60.1,39.9,47,30.05,10.0,Calm,Calm,-,N/A,,Clear,0,2014-01-19 01:53:00
6:53 PM,54.0,44.1,69,30.06,10.0,Calm,Calm,-,N/A,,Clear,0,2014-01-19 02:53:00
7:53 PM,52.0,30.0,43,30.07,10.0,Calm,Calm,-,N/A,,Clear,0,2014-01-19 03:53:00
8:53 PM,52.0,28.0,40,30.07,10.0,NNW,5.8,-,N/A,,Clear,330,2014-01-19 04:53:00
9:53 PM,48.0,28.0,46,30.08,10.0,Calm,Calm,-,N/A,,Clear,0,2014-01-19 05:53:00
10:53 PM,50.0,28.0,43,30.08,10.0,NW,4.6,-,N/A,,Clear,310,2014-01-19 06:53:00
11:53 PM,51.1,27.0,39,30.08,10.0,Calm,Calm,-,N/A,,Clear,0,2014-01-19 07:53:00